[[{"header":{"parameterUnit":"m.s-1","parameterCategory":1,"la1":30.2991,"la2":30.254,"lo1":-89.0895,"lo2":-89.0444,"dy":0.0017,"dx":0.0017,"nx":28,"ny":28,"refTime":"2024-05-02T09:00:00:Z","depth":0,"parameterNumber":2,"parameterNumberName":"U-component_of_WINDS"},"data":[0,0,0,0,0,0,0,0,0,0,0,0,0,0,0,0,0,0,0,0,0,0,0,0,0,0,0,0,0,0,0,0,0,0,0,0,0,0,0,0,0,0,0,0,0,0,0,0,0,0,0,0,0,0,0,0,0,0,-2.5798,-2.5799,0,-2.5868,-2.5869,-2.5869,-2.5858,-2.5856,-2.5855,-2.5854,-2.5925,-2.5928,-2.5931,0,0,0,0,0,0,0,0,0,0,0,0,0,-2.5655,-2.5657,-2.5798,-2.5799,-2.58,-2.5868,-2.5869,-2.587,-2.5858,-2.5856,-2.5855,-2.5853,-2.5924,-2.5928,-2.5932,0,0,0,0,0,0,0,0,0,0,0,0,0,-2.572,-2.5658,-2.5798,-2.5802,-2.5803,-2.5868,-2.5869,-2.587,-2.5858,-2.5856,-2.5854,-2.5853,-2.5923,-2.5928,-2.5932,-2.5997,0,0,-2.5946,-2.5948,0,0,0,0,0,0,0,0,-2.5716,-2.5725,-2.5801,-2.5802,-2.5803,-2.5852,-2.5844,-2.5912,-2.5859,-2.5837,-2.5854,-2.5852,-2.5902,-2.5909,-2.5926,-2.6,-2.6003,-2.5946,-2.5949,-2.5951,-2.5952,0,0,0,0,0,0,0,-2.5712,-2.5722,-2.5826,-2.5802,-2.5803,-2.5801,-2.5808,-2.5857,-2.5879,-2.5839,-2.5838,-2.5847,-2.5903,-2.5921,-2.5927,-2.6004,-2.5946,-2.595,-2.5953,-2.5955,-2.6135,-2.6137,0,0,0,0,0,0,-2.5706,-2.5718,-2.5823,-2.5828,-2.5754,-2.5805,-2.5813,-2.5838,-2.5879,-2.5883,-2.5848,-2.5846,-2.5914,-2.5922,-2.593,-2.6008,-2.5951,-2.5955,-2.5958,-2.6133,-2.6136,-2.6138,0,0,0,0,0,0,-2.5703,-2.5715,-2.5821,-2.5773,-2.5786,-2.5809,-2.5838,-2.5841,-2.5859,-2.5886,-2.589,-2.5863,-2.5913,-2.5923,-2.598,-2.601,-2.5957,-2.5961,-2.6131,-2.6134,-2.6137,-2.6164,0,0,0,0,0,0,-2.5699,-2.5714,-2.5739,-2.5774,-2.5789,-2.587,-2.584,-2.5843,-2.5867,-2.5865,-2.5901,-2.5905,-2.5913,-2.5973,-2.5985,-2.6015,-2.5965,-2.6128,-2.6132,-2.6136,-2.6161,-2.6168,-2.6174,0,0,0,0,0,-2.5694,-2.5744,-2.574,-2.5753,-2.582,-2.5872,-2.588,-2.5888,-2.5869,-2.5894,-2.5912,-2.5904,-2.6005,-2.5979,-2.5992,-2.6024,-2.6126,-2.6131,-2.6135,-2.6158,-2.6167,-2.6174,0,0,0,0,0,0,-2.5712,-2.5749,-2.5745,-2.5808,-2.5837,-2.5869,-2.5901,-2.5897,-2.5932,-2.5928,-2.5937,-2.5945,-2.6003,-2.602,-2.599,-2.6089,-2.6063,-2.607,-2.6076,-2.6084,-2.6091,-2.6085,-2.5969,0,0,0,0,0,-2.5724,-2.5762,-2.5792,-2.5845,-2.586,-2.5878,-2.5901,-2.5905,-2.5935,-2.5947,-2.5968,-2.5998,-2.6036,-2.6062,-2.6099,-2.6164,-2.6171,-2.6192,-2.6199,-2.6204,-2.621,-2.6246,-2.6255,-2.6153,-2.6153,-2.6153,0,0,-2.5747,-2.5772,-2.5796,-2.5849,-2.5872,-2.5912,-2.5888,-2.5931,-2.5961,-2.5953,-2.6008,-2.6025,-2.6059,-2.612,-2.6148,-2.6136,-2.624,-2.621,-2.6214,-2.6217,-2.6252,-2.6261,-2.627,-2.6156,-2.6156,-2.6155,0,0,-2.5811,-2.5834,-2.588,-2.5904,-2.5938,-2.5951,-2.5962,-2.5996,-2.6006,-2.6062,-2.6057,-2.6092,-2.6159,-2.6183,-2.6204,-2.6278,-2.6271,-2.629,-2.6324,-2.6358,-2.6366,-2.6374,-2.6399,-2.6408,-2.6296,-2.6296,-2.6296,0,-2.5836,-2.5896,-2.5904,-2.5948,-2.5972,-2.5967,-2.6014,-2.6036,-2.6082,-2.6098,-2.6084,-2.6167,-2.619,-2.6256,-2.6274,-2.6292,-2.6305,-2.6285,-2.6365,-2.6372,-2.6379,-2.6403,-2.6413,-2.6298,-2.6298,-2.6297,-2.6297,0,-2.5925,-2.5966,-2.6,-2.6043,-2.6071,-2.6116,-2.6131,-2.6158,-2.616,-2.6174,-2.623,-2.6257,-2.63,-2.6316,-2.6318,-2.6383,-2.6374,-2.6363,-2.6336,-2.639,-2.6413,-2.6423,-2.63,-2.63,-2.6299,-2.6299,0,0,-2.6001,-2.6049,-2.6061,-2.6081,-2.612,-2.6152,-2.6197,-2.6239,-2.6261,-2.6293,-2.6331,-2.6388,-2.6377,-2.6401,-2.6406,-2.6437,-2.6493,-2.6421,-2.6422,-2.6433,-2.6566,-2.6574,-2.6584,-2.649,-2.6492,-2.6493,-2.6563,0,-2.6067,-2.6146,-2.6156,-2.6227,-2.6265,-2.6262,-2.6301,-2.6329,-2.6344,-2.6378,-2.6394,-2.6434,-2.6417,-2.6432,-2.6462,-2.648,-2.6519,-2.6475,-2.6524,-2.6526,-2.6515,-2.6597,-2.6605,-2.6669,-2.6572,-2.6573,-2.6574,0,-2.6155,-2.6189,-2.6264,-2.6297,-2.6314,-2.6349,-2.6388,-2.6421,-2.6453,-2.6462,-2.6489,-2.649,-2.6537,-2.651,-2.6575,-2.6544,-2.6565,-2.6577,-2.658,-2.6584,-2.6553,-2.6602,-2.669,-2.6699,-2.6589,-2.6588,-2.6587,0,-2.6202,-2.6267,-2.632,-2.6337,-2.6377,-2.6402,-2.642,-2.6451,-2.6475,-2.6509,-2.6525,-2.6565,-2.6586,-2.6617,-2.6629,-2.6608,-2.6693,-2.6667,-2.67,-2.67,-2.6717,-2.6715,-2.6809,-2.6733,-2.6732,-2.6732,-2.6732,0,-2.6274,-2.632,-2.6341,-2.6374,-2.6425,-2.6435,-2.6486,-2.6503,-2.653,-2.6566,-2.6566,-2.6599,-2.6614,-2.665,-2.666,-2.6711,-2.6721,-2.6729,-2.6731,-2.6728,-2.6727,-2.6741,-2.6737,-2.6735,-2.6734,-2.6734,-2.6733,0,-2.6335,-2.6351,-2.6408,-2.6442,-2.6452,-2.6488,-2.6517,-2.6548,-2.6563,-2.6608,-2.6619,-2.6642,-2.6684,-2.67,-2.6751,-2.6758,-2.6818,-2.6816,-2.6807,-2.6807,-2.6839,-2.6836,-2.6944,-2.6959,-2.6874,-2.6874,-2.6875,0,-2.6379,-2.6414,-2.6452,-2.6476,-2.6495,-2.6534,-2.6559,-2.6571,-2.6597,-2.6637,-2.6663,-2.6706,-2.674,-2.6808,-2.6829,-2.6868,-2.6867,-2.6903,-2.6873,-2.687,-2.6867,-2.6864,-2.6867,-2.6908,-2.6909,-2.6909,-2.691,0,-2.6457,-2.6463,-2.6499,-2.6538,-2.6568,-2.66,-2.663,-2.665,-2.6666,-2.6696,-2.6739,-2.6766,-2.6819,-2.6861,-2.6901,-2.692,-2.6918,-2.6919,-2.6929,-2.6926,-2.6919,-2.6922,-2.682,-2.6916,-2.6916,-2.6915,-2.6915,-2.6915,-2.651,-2.6541,-2.6573,-2.6613,-2.6637,-2.6665,-2.6697,-2.6715,-2.6751,-2.6795,-2.68,-2.6847,-2.6879,-2.6933,-2.6954,-2.699,-2.6981,-2.6995,-2.6998,-2.7001,-2.7003,-2.6914,-2.6998,-2.6998,-2.6998,-2.6997,-2.6997,0,-2.6587,-2.6607,-2.6644,-2.6687,-2.6718,-2.6714,-2.6748,-2.6774,-2.6815,-2.6845,-2.6879,-2.6929,-2.6969,-2.6994,-2.7035,-2.7059,-2.7059,-2.707,-2.7067,-2.7072,-2.701,-2.6997,-2.7069,-2.7069,-2.7069,-2.7069,-2.7069,-2.7069,-2.6631,-2.6682,-2.6693,-2.6756,-2.6776,-2.6822,-2.6841,-2.6868,-2.6891,-2.6947,-2.6981,-2.6997,-2.7024,-2.7067,-2.7105,-2.7111,-2.7125,-2.7136,-2.7142,-2.7083,-2.7076,-2.7069,-2.7057,-2.714,-2.714,-2.72,-2.7201,-2.7201]},{"header":{"parameterUnit":"m.s-1","parameterCategory":1,"la1":30.2991,"la2":30.254,"lo1":-89.0895,"lo2":-89.0444,"dy":0.0017,"dx":0.0017,"nx":28,"ny":28,"refTime":"2024-05-02T09:00:00:Z","depth":0,"parameterNumber":3,"parameterNumberName":"V-component_of_WINDS"},"data":[0,0,0,0,0,0,0,0,0,0,0,0,0,0,0,0,0,0,0,0,0,0,0,0,0,0,0,0,0,0,0,0,0,0,0,0,0,0,0,0,0,0,0,0,0,0,0,0,0,0,0,0,0,0,0,0,0,0,2.9591,2.9591,0,2.9654,2.9655,2.9656,2.9654,2.9653,2.9653,2.9652,2.9714,2.9717,2.9719,0,0,0,0,0,0,0,0,0,0,0,0,0,2.9466,2.9468,2.9591,2.9591,2.9592,2.9654,2.9655,2.9656,2.9654,2.9653,2.9652,2.9651,2.9714,2.9716,2.9719,0,0,0,0,0,0,0,0,0,0,0,0,0,2.9524,2.9469,2.959,2.9599,2.96,2.9654,2.9655,2.9656,2.9655,2.9653,2.9652,2.9651,2.9713,2.9716,2.972,2.9768,0,0,2.9731,2.9733,0,0,0,0,0,0,0,0,2.952,2.9528,2.9597,2.9598,2.96,2.9645,2.9634,2.9694,2.9655,2.9634,2.9652,2.965,2.9692,2.9697,2.9712,2.9771,2.9774,2.9731,2.9734,2.9735,2.9736,0,0,0,0,0,0,0,2.9516,2.9525,2.9616,2.9598,2.96,2.9599,2.9606,2.9645,2.9669,2.9636,2.9636,2.9643,2.9693,2.9709,2.9714,2.9775,2.9731,2.9735,2.9737,2.9738,2.9878,2.9879,0,0,0,0,0,0,2.9511,2.9522,2.9614,2.9618,2.9556,2.9602,2.961,2.9632,2.9669,2.9673,2.9644,2.9643,2.9703,2.9709,2.9716,2.9775,2.9735,2.9739,2.9741,2.9877,2.9878,2.988,0,0,0,0,0,0,2.9508,2.9519,2.9611,2.957,2.9582,2.9606,2.9631,2.9634,2.965,2.9676,2.968,2.9656,2.9702,2.9711,2.9756,2.9778,2.974,2.9744,2.9875,2.9877,2.9879,2.9895,0,0,0,0,0,0,2.9505,2.9518,2.9537,2.957,2.9584,2.965,2.9632,2.9636,2.9656,2.9655,2.9688,2.9692,2.9702,2.975,2.9759,2.9782,2.9747,2.9873,2.9876,2.9878,2.9893,2.9897,2.9902,0,0,0,0,0,2.95,2.9538,2.9538,2.9549,2.9608,2.9652,2.9659,2.9671,2.9658,2.9677,2.9694,2.9691,2.9774,2.9755,2.9765,2.9789,2.9872,2.9875,2.9878,2.989,2.9896,2.9902,0,0,0,0,0,0,2.9506,2.9543,2.9543,2.9593,2.9619,2.9651,2.9676,2.9676,2.9706,2.9704,2.9716,2.9723,2.9768,2.9783,2.9761,2.9839,2.9821,2.9827,2.9827,2.9833,2.9837,2.9832,2.975,0,0,0,0,0,2.9513,2.9546,2.9576,2.9617,2.9631,2.9651,2.967,2.9677,2.9704,2.9715,2.9735,2.9761,2.9793,2.9814,2.9845,2.9895,2.9902,2.9917,2.9921,2.9925,2.9929,2.9957,2.9964,2.9891,2.9891,2.9891,0,0,2.9528,2.9552,2.9572,2.9619,2.964,2.9674,2.966,2.9696,2.9721,2.972,2.9764,2.978,2.981,2.9858,2.988,2.9872,2.9952,2.9929,2.9932,2.9934,2.9962,2.9969,2.9975,2.9893,2.9893,2.9893,0,0,2.9572,2.9594,2.9631,2.9653,2.9685,2.9699,2.9708,2.974,2.9751,2.9796,2.9797,2.9826,2.9881,2.9902,2.992,2.9974,2.9972,2.9984,3.0007,3.0034,3.004,3.0045,3.0064,3.0071,2.9988,2.9988,2.9988,0,2.9586,2.9636,2.9649,2.9686,2.9706,2.9709,2.9747,2.9767,2.9808,2.9822,2.9812,2.9882,2.9902,2.9956,2.9969,2.9984,2.9994,2.998,3.0038,3.0044,3.0049,3.0067,3.0074,2.999,2.9989,2.9989,2.9989,0,2.9652,2.9687,2.9713,2.9754,2.9778,2.9814,2.9832,2.9855,2.986,2.9874,2.992,2.9945,2.9981,2.9994,2.9999,3.0049,3.0043,3.0036,3.0018,3.0057,3.0074,3.0081,2.9991,2.9991,2.999,2.999,0,0,2.97,2.9748,2.9757,2.9776,2.9813,2.984,2.9877,2.9914,2.9933,2.9961,2.9992,3.004,3.0034,3.0054,3.0062,3.0086,3.0127,3.0076,3.0077,3.0084,3.0183,3.0188,3.0196,3.0127,3.0128,3.0129,3.0181,0,2.9747,2.9814,2.9827,2.9884,2.9917,2.9921,2.9953,2.9979,2.9994,3.0023,3.0039,3.0073,3.0063,3.0075,3.0099,3.0117,3.0147,3.0113,3.0155,3.0156,3.0147,3.0205,3.021,3.0257,3.0188,3.0189,3.019,0,2.9811,2.9843,2.9903,2.9937,2.9951,2.998,3.0015,3.0043,3.0073,3.0082,3.0106,3.0111,3.0149,3.0131,3.0184,3.0161,3.0179,3.019,3.0192,3.0196,3.0175,3.021,3.0272,3.0279,3.0201,3.02,3.0199,0,2.984,2.9897,2.9941,2.9957,2.9997,3.0017,3.0035,3.0063,3.0085,3.0115,3.0129,3.0164,3.0182,3.0209,3.0223,3.0208,3.0275,3.0257,3.0283,3.0282,3.0296,3.0294,3.0362,3.0308,3.0308,3.0308,3.0308,0,2.9891,2.9928,2.9954,2.9981,3.0023,3.0038,3.0079,3.0096,3.0122,3.0152,3.0157,3.0185,3.0202,3.0233,3.0244,3.0286,3.0295,3.0303,3.0305,3.0302,3.0301,3.0313,3.031,3.031,3.031,3.0309,3.0309,0,2.9929,2.9949,2.9997,3.0032,3.0041,3.007,3.01,3.0126,3.0141,3.018,3.0189,3.0213,3.025,3.0267,3.0311,3.0319,3.0367,3.0367,3.0357,3.0358,3.0382,3.038,3.0459,3.047,3.041,3.0411,3.0411,0,2.9961,2.9989,3.0028,3.0049,3.0067,3.0101,3.0123,3.0139,3.0162,3.0199,3.0221,3.0258,3.0288,3.0346,3.0367,3.0401,3.0402,3.0428,3.0407,3.0403,3.0402,3.04,3.0403,3.0431,3.0432,3.0432,3.0433,0,3.0014,3.0022,3.0055,3.0091,3.0117,3.0146,3.0175,3.0191,3.0212,3.0238,3.0275,3.0299,3.0346,3.0382,3.0418,3.0436,3.0438,3.0439,3.0447,3.0443,3.0436,3.044,3.0367,3.0437,3.0436,3.0436,3.0436,3.0436,3.0049,3.0075,3.0107,3.0143,3.0166,3.0193,3.0219,3.0239,3.0271,3.031,3.0318,3.0358,3.0388,3.0437,3.0456,3.0487,3.0481,3.0492,3.0495,3.0498,3.0499,3.0432,3.0494,3.0494,3.0494,3.0494,3.0494,0,3.0103,3.0123,3.0156,3.0197,3.0225,3.0226,3.0257,3.0281,3.0317,3.0345,3.0375,3.0418,3.0454,3.0479,3.0515,3.0536,3.0537,3.0544,3.0543,3.0547,3.0502,3.0492,3.0542,3.0542,3.0542,3.0542,3.0542,3.0542,3.0134,3.0178,3.019,3.0246,3.0266,3.0306,3.0324,3.0349,3.0372,3.042,3.0451,3.0467,3.0494,3.0532,3.0565,3.0571,3.0584,3.0591,3.0597,3.0555,3.055,3.0545,3.0535,3.0594,3.0594,3.064,3.064,3.064]}]]